This is the latest recevied weather packets stored in our database for station/object IK2ILW-4. If no packets are shown the sender has not sent any weather packets the latest 10 day(s).
| Time | Temp. | Humidity | Pressure | Rain* | Wind** | Luminosity | Snow |
|---|---|---|---|---|---|---|---|
| 1787624271 | 14.44° C | 92% | 1016.5 hPa | 7.11 mm | - | 0 W/m² | - |
| 1787623962 | 14.44° C | 92% | 1016.6 hPa | 7.11 mm | - | 0 W/m² | - |
| 1787623657 | 14.44° C | 93% | 1016.6 hPa | 7.11 mm | - | 0 W/m² | - |
| 1787623368 | 14.44° C | 93% | 1016.6 hPa | 7.11 mm | - | 0 W/m² | - |
| 1787623068 | 14.44° C | 92% | 1017 hPa | 6.35 mm | - | 0 W/m² | - |
| 1787622761 | 14.44° C | 93% | 1017 hPa | 6.1 mm | - | 0 W/m² | - |
| 1787622469 | 14.44° C | 93% | 1017 hPa | 6.1 mm | - | 0 W/m² | - |
| 1787622165 | 14.44° C | 92% | 1016.9 hPa | 5.84 mm | - | 0 W/m² | - |
| 1787621861 | 15° C | 92% | 1016.9 hPa | 5.33 mm | - | 0 W/m² | - |
| 1787621570 | 15° C | 92% | 1016.9 hPa | 4.57 mm | - | 0 W/m² | - |
| 1787621264 | 15° C | 91% | 1016.9 hPa | 3.56 mm | - | 0 W/m² | - |
| 1787620957 | 15° C | 91% | 1016.9 hPa | 3.3 mm | - | 0 W/m² | - |
| 1787620658 | 15° C | 90% | 1016.9 hPa | 2.79 mm | - | 0 W/m² | - |
| 1787620356 | 15.56° C | 91% | 1017 hPa | 2.29 mm | - | 0 W/m² | - |
| 1787619755 | 15.56° C | 91% | 1017 hPa | 1.52 mm | - | 0 W/m² | - |
| 1787615567 | 15.56° C | 87% | 1018.3 hPa | 1.27 mm | - | 0 W/m² | - |
| 1787615256 | 15.56° C | 89% | 1018.3 hPa | 1.27 mm | - | 0 W/m² | - |
| 1787614953 | 15.56° C | 88% | 1018.3 hPa | 1.27 mm | - | 0 W/m² | - |
| 1787614668 | 16.11° C | 84% | 1018.3 hPa | 1.27 mm | - | 0 W/m² | - |
| 1787614375 | 17.22° C | 80% | 1018.3 hPa | 1.02 mm | - | 0 W/m² | - |
| 1787614060 | 17.78° C | 76% | 1018.5 hPa | 0.25 mm | - | 0 W/m² | - |
| 1787613759 | 17.22° C | 77% | 1018.5 hPa | 0.25 mm | - | 0 W/m² | - |
| 1787613473 | 17.22° C | 78% | 1018.5 hPa | 0.25 mm | - | 0 W/m² | - |
| 1787613156 | 17.22° C | 77% | 1018.9 hPa | 0.25 mm | - | 0 W/m² | - |
| 1787612872 | 17.78° C | 78% | 1018.9 hPa | 0.25 mm | - | 0 W/m² | - |
* Rain since midnight (hover to see other rain measurements)
** Current wind speed in m/s (hover to see current wind gust speed)